Hourly Data Report for February 12, 2005

TORONTO CITY
ONTARIO

43°40'00.000" N
79°24'00.000" W
112.50 m
6158355
71508
XTO

Download Data

Hourly Data (February 2005)
Hourly Data Report for February 12, 2005
TIME
LST
Temp Definition
°C
Dew Point Definition
°C
Rel Hum Definition
%
Precip. Amount Definition
mm

Wind Dir Definition
10's deg

Wind Spd Definition
km/h
Visibility Definition
km
Stn Press Definition
kPa
Hmdx Definition


Wind Chill Definition


Weather Definition


00:00 -0.6 -2.9 84   LegendMM LegendMM   99.26     LegendNANA
01:00 0.1 -2.9 80   LegendMM LegendMM   99.21     LegendNANA
02:00 0.3 -3.6 75   LegendMM LegendMM   99.19     LegendNANA
03:00 0.2 -3.1 78   LegendMM LegendMM   99.16     LegendNANA
04:00 0.2 -3.1 78   LegendMM LegendMM   99.10     LegendNANA
05:00 0.0 -3.0 80   LegendMM LegendMM   99.07     LegendNANA
06:00 -0.2 -2.7 83   LegendMM LegendMM   99.04     LegendNANA
07:00 -0.5 -2.1 89   LegendMM LegendMM   99.02     LegendNANA
08:00 -0.3 -2.2 87   LegendMM LegendMM   99.00     LegendNANA
09:00 0.1 -2.0 86   LegendMM LegendMM   99.02     LegendNANA
10:00 1.3 -1.2 83   LegendMM LegendMM   98.99     LegendNANA
11:00 3.4 -0.8 74   LegendMM LegendMM   98.96     LegendNANA
12:00 3.9 -1.7 67   LegendMM LegendMM   98.99     LegendNANA
13:00 4.4 -3.5 56   LegendMM LegendMM   98.99     LegendNANA
14:00 3.9 -2.0 65   LegendMM LegendMM   99.04     LegendNANA
15:00 4.1 -4.1 55   LegendMM LegendMM   99.11     LegendNANA
16:00 3.4 -4.3 57   LegendMM LegendMM   99.20     LegendNANA
17:00 2.8 -4.6 58   LegendMM LegendMM   99.32     LegendNANA
18:00 1.6 -6.2 56   LegendMM LegendMM   99.46     LegendNANA
19:00 0.9 -6.4 58   LegendMM LegendMM   99.63     LegendNANA
20:00 0.3 -6.4 61   LegendMM LegendMM   99.74     LegendNANA
21:00 -0.1 -5.9 65   LegendMM LegendMM   99.83     LegendNANA
22:00 -0.3 -7.5 58   LegendMM LegendMM   99.95     LegendNANA
23:00 -2.3 -11.0 51   LegendMM LegendMM   100.10     LegendNANA

Notes on Data Quality.

Legend

  • E = Estimated
  • M = Missing
  • NA = Not Available*
  • [empty] = Indicates an unobserved value
Date modified: